Tracking 19574 objects as of 16-Feb-2019
HD Live streaming from Space Station
objects crossing your sky now

OKEAN O

Track OKEAN O now!
10-day predictions
OKEAN O is classified as:


NORAD ID: 25860
Int'l Code: 1999-039A
Perigee: 646.3 km
Apogee: 648.2 km
Inclination: 98.2 °
Period: 97.5 minutes
Semi major axis: 7018 km
RCS: 19.8052 m2 (large)
Launch date: July 17, 1999
Source: Commonwealth of Independent States (former USSR) (CIS)
Launch site: TYURATAM MISSILE AND SPACE COMPLEX (TTMTR)
aabbcc
Your satellite tracking list
Your tracking list is empty




NASA's NSSDC Master Catalog

Two Line Element Set (TLE):
1 25860U 99039A   19046.55210044 +.00000038 +00000-0 +13120-4 0  9994
2 25860 098.2265 051.5421 0001327 066.0940 294.0408 14.76590079053510
Source of the keplerian elements: AFSPC